Time,TemperatureF,DewpointF,PressureIn,WindDirection,WindDirectionDegrees,WindSpeedMPH,WindSpeedGustMPH,Humidity,HourlyPrecipIn,Conditions,Clouds,dailyrainin,SoftwareType,DateUTC
2013-03-13 00:02:00,28.0,24.0,30.04,West,276,11.0,17.0,84,0.00,,,0.00,,2013-03-13 04:02:00,
2013-03-13 00:13:00,28.0,24.0,30.04,West,276,11.0,17.0,84,0.00,,,0.00,,2013-03-13 04:13:00,
2013-03-13 00:22:00,27.0,23.0,30.04,WNW,284,9.0,19.0,85,0.00,,,0.00,,2013-03-13 04:22:00,
2013-03-13 00:32:00,27.0,23.0,30.04,West,276,6.0,16.0,84,0.00,,,0.00,,2013-03-13 04:32:00,
2013-03-13 00:42:00,27.0,23.0,30.04,West,276,6.0,16.0,84,0.00,,,0.00,,2013-03-13 04:42:00,
2013-03-13 00:53:00,27.0,23.0,30.05,West,262,9.0,15.0,84,0.00,,,0.00,,2013-03-13 04:53:00,
2013-03-13 01:02:00,27.0,22.0,30.05,NW,304,8.0,18.0,81,0.00,,,0.00,,2013-03-13 05:02:00,
2013-03-13 01:12:00,27.0,22.0,30.05,NW,304,8.0,18.0,81,0.00,,,0.00,,2013-03-13 05:12:00,
2013-03-13 01:22:00,27.0,23.0,30.05,West,279,7.0,14.0,83,0.00,,,0.00,,2013-03-13 05:22:00,
2013-03-13 01:32:00,27.0,23.0,30.05,West,281,7.0,14.0,84,0.00,,,0.00,,2013-03-13 05:32:00,
2013-03-13 01:42:00,27.0,23.0,30.05,West,281,7.0,14.0,84,0.00,,,0.00,,2013-03-13 05:42:00,
2013-03-13 01:52:00,26.0,22.0,30.06,WNW,289,10.0,16.0,86,0.00,,,0.00,,2013-03-13 05:52:00,
2013-03-13 02:02:00,26.0,22.0,30.06,West,277,7.0,16.0,84,0.00,,,0.00,,2013-03-13 06:02:00,
2013-03-13 02:12:00,26.0,22.0,30.06,West,277,7.0,16.0,84,0.00,,,0.00,,2013-03-13 06:12:00,
2013-03-13 02:23:00,26.0,22.0,30.06,WNW,289,7.0,13.0,85,0.00,,,0.00,,2013-03-13 06:23:00,
2013-03-13 02:32:00,26.0,22.0,30.06,NW,304,5.0,13.0,86,0.00,,,0.00,,2013-03-13 06:32:00,
2013-03-13 02:42:00,26.0,22.0,30.06,NW,304,5.0,13.0,86,0.00,,,0.00,,2013-03-13 06:42:00,
2013-03-13 02:52:00,26.0,23.0,30.06,WNW,290,8.0,11.0,87,0.00,,,0.00,,2013-03-13 06:52:00,
2013-03-13 03:02:00,26.0,22.0,30.06,WNW,298,7.0,13.0,85,0.00,,,0.00,,2013-03-13 07:02:00,
2013-03-13 03:12:00,26.0,22.0,30.06,WNW,298,7.0,13.0,85,0.00,,,0.00,,2013-03-13 07:12:00,
2013-03-13 03:22:00,26.0,22.0,30.06,WNW,297,6.0,11.0,85,0.00,,,0.00,,2013-03-13 07:22:00,
2013-03-13 03:32:00,26.0,22.0,30.06,WNW,288,8.0,15.0,83,0.00,,,0.00,,2013-03-13 07:32:00,
2013-03-13 03:42:00,26.0,22.0,30.06,WNW,288,8.0,15.0,83,0.00,,,0.00,,2013-03-13 07:42:00,
2013-03-13 03:53:00,26.0,22.0,30.06,NW,308,7.0,14.0,84,0.00,,,0.00,,2013-03-13 07:53:00,
2013-03-13 04:03:00,26.0,21.0,30.07,WNW,284,7.0,15.0,82,0.00,,,0.00,,2013-03-13 08:03:00,
2013-03-13 04:12:00,26.0,21.0,30.07,WNW,284,7.0,15.0,82,0.00,,,0.00,,2013-03-13 08:12:00,
2013-03-13 04:22:00,26.0,22.0,30.07,NW,315,8.0,15.0,83,0.00,,,0.00,,2013-03-13 08:22:00,
2013-03-13 04:32:00,26.0,22.0,30.07,NW,304,8.0,15.0,83,0.00,,,0.00,,2013-03-13 08:32:00,
2013-03-13 04:43:00,26.0,22.0,30.07,NW,304,8.0,15.0,83,0.00,,,0.00,,2013-03-13 08:43:00,
2013-03-13 04:53:00,26.0,22.0,30.08,WNW,290,7.0,13.0,84,0.00,,,0.00,,2013-03-13 08:53:00,
2013-03-13 05:02:00,26.0,22.0,30.07,NW,311,10.0,15.0,83,0.00,,,0.00,,2013-03-13 09:02:00,
2013-03-13 05:22:00,26.0,22.0,30.08,WNW,292,8.0,16.0,83,0.00,,,0.00,,2013-03-13 09:22:00,
2013-03-13 05:32:00,26.0,22.0,30.08,WNW,295,8.0,16.0,83,0.00,,,0.00,,2013-03-13 09:32:00,
2013-03-13 05:42:00,26.0,22.0,30.08,WNW,295,8.0,16.0,83,0.00,,,0.00,,2013-03-13 09:42:00,
2013-03-13 05:52:00,26.0,21.0,30.09,NW,308,10.0,17.0,82,0.00,,,0.00,,2013-03-13 09:52:00,
2013-03-13 06:02:00,25.0,21.0,30.09,WNW,300,8.0,15.0,86,0.00,,,0.00,,2013-03-13 10:02:00,
2013-03-13 06:12:00,25.0,21.0,30.09,WNW,300,8.0,15.0,86,0.00,,,0.00,,2013-03-13 10:12:00,
2013-03-13 06:22:00,25.0,21.0,30.10,WNW,288,8.0,16.0,86,0.00,,,0.00,,2013-03-13 10:22:00,
2013-03-13 06:32:00,25.0,21.0,30.11,WNW,296,7.0,13.0,85,0.00,,,0.00,,2013-03-13 10:32:00,
2013-03-13 06:42:00,25.0,21.0,30.11,WNW,296,7.0,13.0,85,0.00,,,0.00,,2013-03-13 10:42:00,
2013-03-13 06:52:00,25.0,21.0,30.11,NW,318,6.0,14.0,84,0.00,,,0.00,,2013-03-13 10:52:00,
2013-03-13 07:02:00,25.0,21.0,30.12,West,279,6.0,13.0,84,0.00,,,0.00,,2013-03-13 11:02:00,
2013-03-13 07:12:00,25.0,21.0,30.12,West,279,6.0,13.0,84,0.00,,,0.00,,2013-03-13 11:12:00,
2013-03-13 07:22:00,25.0,21.0,30.13,NW,309,7.0,14.0,84,0.00,,,0.00,,2013-03-13 11:22:00,
2013-03-13 07:32:00,26.0,21.0,30.14,WNW,289,9.0,16.0,82,0.00,,,0.00,,2013-03-13 11:32:00,
2013-03-13 07:42:00,26.0,21.0,30.14,WNW,289,9.0,16.0,82,0.00,,,0.00,,2013-03-13 11:42:00,
2013-03-13 07:52:00,24.0,17.0,30.14,NW,319,11.0,16.0,74,0.00,,,0.00,,2013-03-13 11:52:00,
2013-03-13 08:02:00,23.0,16.0,30.15,NW,309,10.0,16.0,75,0.00,,,0.00,,2013-03-13 12:02:00,
2013-03-13 08:12:00,23.0,16.0,30.15,NW,309,10.0,16.0,75,0.00,,,0.00,,2013-03-13 12:12:00,
2013-03-13 08:22:00,23.0,17.0,30.15,NW,318,10.0,16.0,76,0.00,,,0.00,,2013-03-13 12:22:00,
2013-03-13 08:32:00,23.0,17.0,30.16,NW,311,7.0,13.0,78,0.00,,,0.00,,2013-03-13 12:32:00,
2013-03-13 08:42:00,23.0,17.0,30.16,NW,311,7.0,13.0,78,0.00,,,0.00,,2013-03-13 12:42:00,
2013-03-13 08:53:00,23.0,17.0,30.16,NW,323,8.0,14.0,77,0.00,,,0.00,,2013-03-13 12:53:00,
2013-03-13 09:02:00,24.0,18.0,30.17,WNW,302,6.0,15.0,76,0.00,,,0.00,,2013-03-13 13:02:00,
2013-03-13 09:11:00,24.0,18.0,30.17,WNW,302,6.0,15.0,76,0.00,,,0.00,,2013-03-13 13:11:00,
2013-03-13 09:22:00,24.0,18.0,30.18,WNW,298,8.0,14.0,76,0.00,,,0.00,,2013-03-13 13:22:00,
2013-03-13 09:32:00,24.0,17.0,30.19,WNW,303,10.0,15.0,75,0.00,,,0.00,,2013-03-13 13:32:00,
2013-03-13 09:42:00,24.0,17.0,30.19,WNW,303,10.0,15.0,75,0.00,,,0.00,,2013-03-13 13:42:00,
2013-03-13 09:52:00,24.0,18.0,30.19,NW,313,10.0,18.0,76,0.00,,,0.00,,2013-03-13 13:52:00,
2013-03-13 10:02:00,25.0,18.0,30.19,WNW,300,10.0,15.0,74,0.00,,,0.00,,2013-03-13 14:02:00,
2013-03-13 10:12:00,25.0,18.0,30.19,WNW,300,10.0,15.0,74,0.00,,,0.00,,2013-03-13 14:12:00,
2013-03-13 10:21:00,25.0,18.0,30.20,NW,315,10.0,17.0,74,0.00,,,0.00,,2013-03-13 14:21:00,
2013-03-13 10:33:00,25.0,18.0,30.21,WNW,297,9.0,17.0,73,0.00,,,0.00,,2013-03-13 14:33:00,
2013-03-13 10:42:00,25.0,18.0,30.21,WNW,297,9.0,17.0,73,0.00,,,0.00,,2013-03-13 14:42:00,
2013-03-13 10:52:00,25.0,18.0,30.22,NW,323,9.0,16.0,74,0.00,,,0.00,,2013-03-13 14:52:00,
2013-03-13 11:03:00,26.0,19.0,30.22,NW,307,8.0,14.0,74,0.00,,,0.00,,2013-03-13 15:03:00,
2013-03-13 11:12:00,26.0,19.0,30.22,NW,307,8.0,14.0,74,0.00,,,0.00,,2013-03-13 15:12:00,
2013-03-13 11:22:00,25.0,18.0,30.22,NW,307,10.0,17.0,73,0.00,,,0.00,,2013-03-13 15:22:00,
2013-03-13 11:32:00,26.0,19.0,30.23,WNW,294,10.0,16.0,73,0.00,,,0.00,,2013-03-13 15:32:00,
2013-03-13 11:42:00,26.0,19.0,30.23,WNW,294,10.0,16.0,73,0.00,,,0.00,,2013-03-13 15:42:00,
2013-03-13 11:52:00,26.0,19.0,30.24,WNW,288,9.0,17.0,74,0.00,,,0.00,,2013-03-13 15:52:00,
2013-03-13 12:03:00,26.0,18.0,30.24,NW,312,10.0,17.0,71,0.00,,,0.00,,2013-03-13 16:03:00,
2013-03-13 12:12:00,26.0,18.0,30.24,NW,312,10.0,17.0,71,0.00,,,0.00,,2013-03-13 16:12:00,
2013-03-13 12:22:00,27.0,19.0,30.24,WNW,297,9.0,17.0,72,0.00,,,0.00,,2013-03-13 16:22:00,
2013-03-13 12:32:00,27.0,18.0,30.25,NNW,327,11.0,17.0,68,0.00,,,0.00,,2013-03-13 16:32:00,
2013-03-13 12:42:00,27.0,18.0,30.25,NNW,327,11.0,17.0,68,0.00,,,0.00,,2013-03-13 16:42:00,
2013-03-13 12:52:00,28.0,19.0,30.25,WNW,302,13.0,19.0,68,0.00,,,0.00,,2013-03-13 16:52:00,
2013-03-13 13:02:00,28.0,18.0,30.26,WNW,302,10.0,18.0,67,0.00,,,0.00,,2013-03-13 17:02:00,
2013-03-13 13:12:00,28.0,18.0,30.26,WNW,302,10.0,18.0,67,0.00,,,0.00,,2013-03-13 17:12:00,
2013-03-13 13:22:00,29.0,19.0,30.26,WNW,298,10.0,18.0,67,0.00,,,0.00,,2013-03-13 17:22:00,
2013-03-13 13:32:00,29.0,19.0,30.26,NNW,328,12.0,21.0,67,0.00,,,0.00,,2013-03-13 17:32:00,
2013-03-13 13:42:00,29.0,19.0,30.26,NNW,328,12.0,21.0,67,0.00,,,0.00,,2013-03-13 17:42:00,
2013-03-13 13:53:00,29.0,18.0,30.27,NNW,329,10.0,18.0,64,0.00,,,0.00,,2013-03-13 17:53:00,
2013-03-13 14:02:00,30.0,20.0,30.27,NW,308,10.0,15.0,65,0.00,,,0.00,,2013-03-13 18:02:00,
2013-03-13 14:12:00,30.0,20.0,30.27,NW,308,10.0,15.0,65,0.00,,,0.00,,2013-03-13 18:12:00,
2013-03-13 14:22:00,30.0,18.0,30.27,NW,311,10.0,19.0,60,0.00,,,0.00,,2013-03-13 18:22:00,
2013-03-13 14:33:00,31.0,18.0,30.27,NW,326,13.0,20.0,57,0.00,,,0.00,,2013-03-13 18:33:00,
2013-03-13 14:42:00,31.0,18.0,30.27,NW,326,13.0,20.0,57,0.00,,,0.00,,2013-03-13 18:42:00,
2013-03-13 14:52:00,32.0,20.0,30.27,WNW,295,10.0,16.0,60,0.00,,,0.00,,2013-03-13 18:52:00,
2013-03-13 15:02:00,32.0,19.0,30.27,NW,308,9.0,16.0,58,0.00,,,0.00,,2013-03-13 19:02:00,
2013-03-13 15:12:00,32.0,19.0,30.27,NW,308,9.0,16.0,58,0.00,,,0.00,,2013-03-13 19:12:00,
2013-03-13 15:22:00,32.0,19.0,30.27,WNW,295,11.0,19.0,57,0.00,,,0.00,,2013-03-13 19:22:00,
2013-03-13 15:32:00,33.0,19.0,30.27,NW,311,11.0,17.0,56,0.00,,,0.00,,2013-03-13 19:32:00,
2013-03-13 15:43:00,33.0,19.0,30.27,NW,311,11.0,17.0,56,0.00,,,0.00,,2013-03-13 19:43:00,
2013-03-13 15:53:00,33.0,19.0,30.27,West,277,11.0,19.0,57,0.00,,,0.00,,2013-03-13 19:53:00,
2013-03-13 16:02:00,33.0,19.0,30.28,WNW,298,11.0,19.0,56,0.00,,,0.00,,2013-03-13 20:02:00,
2013-03-13 16:12:00,33.0,19.0,30.28,WNW,298,11.0,19.0,56,0.00,,,0.00,,2013-03-13 20:12:00,
2013-03-13 16:22:00,33.0,18.0,30.28,WNW,302,11.0,18.0,53,0.00,,,0.00,,2013-03-13 20:22:00,
2013-03-13 16:32:00,32.0,15.0,30.29,WNW,287,11.0,19.0,50,0.00,,,0.00,,2013-03-13 20:32:00,
2013-03-13 16:42:00,32.0,15.0,30.29,WNW,287,11.0,19.0,50,0.00,,,0.00,,2013-03-13 20:42:00,
2013-03-13 16:52:00,33.0,17.0,30.29,NW,310,9.0,16.0,52,0.00,,,0.00,,2013-03-13 20:52:00,
2013-03-13 17:02:00,33.0,16.0,30.29,West,281,10.0,17.0,49,0.00,,,0.00,,2013-03-13 21:02:00,
2013-03-13 17:12:00,33.0,16.0,30.29,West,281,10.0,17.0,49,0.00,,,0.00,,2013-03-13 21:12:00,
2013-03-13 17:22:00,33.0,18.0,30.30,WNW,284,7.0,17.0,53,0.00,,,0.00,,2013-03-13 21:22:00,
2013-03-13 17:33:00,33.0,17.0,30.30,WNW,298,9.0,17.0,51,0.00,,,0.00,,2013-03-13 21:33:00,
2013-03-13 17:42:00,33.0,17.0,30.30,WNW,298,9.0,17.0,51,0.00,,,0.00,,2013-03-13 21:42:00,
2013-03-13 17:52:00,33.0,17.0,30.30,NW,308,10.0,17.0,51,0.00,,,0.00,,2013-03-13 21:52:00,
2013-03-13 18:02:00,33.0,18.0,30.31,WNW,285,10.0,16.0,53,0.00,,,0.00,,2013-03-13 22:02:00,
2013-03-13 18:12:00,33.0,18.0,30.31,WNW,285,10.0,16.0,53,0.00,,,0.00,,2013-03-13 22:12:00,
2013-03-13 18:22:00,33.0,18.0,30.31,West,279,7.0,13.0,54,0.00,,,0.00,,2013-03-13 22:22:00,
2013-03-13 18:32:00,33.0,17.0,30.32,WNW,300,9.0,15.0,52,0.00,,,0.00,,2013-03-13 22:32:00,
2013-03-13 18:42:00,33.0,17.0,30.32,WNW,300,9.0,15.0,52,0.00,,,0.00,,2013-03-13 22:42:00,
2013-03-13 18:52:00,32.0,18.0,30.32,NW,308,7.0,14.0,55,0.00,,,0.00,,2013-03-13 22:52:00,
2013-03-13 19:02:00,32.0,17.0,30.32,West,277,6.0,15.0,54,0.00,,,0.00,,2013-03-13 23:02:00,
2013-03-13 19:12:00,32.0,17.0,30.32,West,277,6.0,15.0,54,0.00,,,0.00,,2013-03-13 23:12:00,
2013-03-13 19:22:00,32.0,18.0,30.32,NW,309,6.0,13.0,55,0.00,,,0.00,,2013-03-13 23:22:00,
2013-03-13 19:32:00,32.0,17.0,30.32,WSW,255,6.0,11.0,54,0.00,,,0.00,,2013-03-13 23:32:00,
2013-03-13 19:42:00,32.0,17.0,30.32,WSW,255,6.0,11.0,54,0.00,,,0.00,,2013-03-13 23:42:00,
2013-03-13 19:52:00,32.0,17.0,30.32,WSW,255,6.0,11.0,54,0.00,,,0.00,,2013-03-13 23:52:00,
2013-03-13 20:02:00,32.0,17.0,30.32,WSW,255,6.0,11.0,54,0.00,,,0.00,,2013-03-14 00:02:00,
2013-03-13 20:22:00,29.0,18.0,30.33,WNW,302,5.0,9.0,63,0.00,,,0.00,,2013-03-14 00:22:00,
2013-03-13 20:33:00,28.0,17.0,30.34,West,262,5.0,9.0,64,0.00,,,0.00,,2013-03-14 00:33:00,
2013-03-13 20:42:00,28.0,17.0,30.34,West,262,5.0,9.0,64,0.00,,,0.00,,2013-03-14 00:42:00,
2013-03-13 20:52:00,28.0,17.0,30.34,WNW,293,5.0,10.0,63,0.00,,,0.00,,2013-03-14 00:52:00,
2013-03-13 21:02:00,28.0,18.0,30.34,West,280,5.0,7.0,66,0.00,,,0.00,,2013-03-14 01:02:00,
2013-03-13 21:12:00,28.0,18.0,30.34,West,280,5.0,7.0,66,0.00,,,0.00,,2013-03-14 01:12:00,
2013-03-13 21:22:00,28.0,18.0,30.34,WNW,288,3.0,9.0,67,0.00,,,0.00,,2013-03-14 01:22:00,
2013-03-13 21:32:00,27.0,18.0,30.34,NW,308,4.0,9.0,67,0.00,,,0.00,,2013-03-14 01:32:00,
2013-03-13 21:42:00,27.0,18.0,30.34,NW,308,4.0,9.0,67,0.00,,,0.00,,2013-03-14 01:42:00,
2013-03-13 21:53:00,27.0,18.0,30.34,WNW,297,4.0,8.0,67,0.00,,,0.00,,2013-03-14 01:53:00,
2013-03-13 22:02:00,27.0,18.0,30.35,WNW,297,2.0,4.0,67,0.00,,,0.00,,2013-03-14 02:02:00,
2013-03-13 22:12:00,27.0,18.0,30.35,WNW,297,2.0,4.0,67,0.00,,,0.00,,2013-03-14 02:12:00,
2013-03-13 22:22:00,26.0,16.0,30.35,NW,321,3.0,6.0,66,0.00,,,0.00,,2013-03-14 02:22:00,
2013-03-13 22:32:00,26.0,17.0,30.35,West,280,1.0,5.0,68,0.00,,,0.00,,2013-03-14 02:32:00,
2013-03-13 22:42:00,26.0,17.0,30.35,West,280,1.0,5.0,68,0.00,,,0.00,,2013-03-14 02:42:00,
2013-03-13 22:52:00,26.0,17.0,30.35,West,280,1.0,5.0,68,0.00,,,0.00,,2013-03-14 02:52:00,
2013-03-13 23:02:00,25.0,16.0,30.35,WNW,291,0.0,2.0,69,0.00,,,0.00,,2013-03-14 03:02:00,
2013-03-13 23:12:00,25.0,16.0,30.35,WNW,291,0.0,2.0,69,0.00,,,0.00,,2013-03-14 03:12:00,
2013-03-13 23:23:00,25.0,17.0,30.35,WNW,286,0.0,2.0,70,0.00,,,0.00,,2013-03-14 03:23:00,
2013-03-13 23:32:00,24.0,16.0,30.35,West,263,0.0,1.0,71,0.00,,,0.00,,2013-03-14 03:32:00,
2013-03-13 23:42:00,24.0,16.0,30.35,West,263,0.0,1.0,71,0.00,,,0.00,,2013-03-14 03:42:00,
2013-03-13 23:52:00,24.0,17.0,30.35,West,263,0.0,1.0,73,0.00,,,0.00,,2013-03-14 03:52:00,